sat.trackr.live / text

‹ back to catalog

STARLINK-34978

NORAD 65435 · 2025-194B

PAYLOAD ACTIVE UNKNOWN

§ Identity

Operator
Country
US
Launch date
2025-09-03
Launch site
AFWTR
Launch vehicle
Mass (kg)
RCS (m²)

Purposes: comms

External: N2YO · Heavens-Above · Gunter

§ Orbital elements

Epoch: 2026-05-25T03:14:20.436864Z

Period
95.64 min
Inclination
97.4489°
Eccentricity
0.0001798
Mean motion
15.05658452 rev/d
Perigee alt
548.2 km
Apogee alt
550.7 km
Semi-major
6,927.6 km
B*
1.6300e-4
RAAN
359.4111°
Arg perigee
95.6149°
Mean anomaly
264.5283°
Rev number
4,115

§ Raw data

STARLINK-349781 65435U 25194B   26145.13495876  .00002295  00000+0  16300-3 0  99952 65435  97.4489 359.4111 0001798  95.6149 264.5283 15.05658452 41151

JSON: /api/v1/satellites/65435 · /tle

For live sub-satellite position, see the globe view (requires WebGL).

§ Visibility from observer

Set your observer location to see the next 7 days of passes ≥ 10°. The values pass through the URL so the page stays shareable.

No JS? Fill the form by hand. The geolocation button needs JavaScript.